Klamath Falls, OR

7:28 AM PDT on September 27, 2016 (GMT -0700)
Klamath Falls International

Weather History for KLMT - November, 2012

Change the Weather History Date:

Tuesday, November 27, 2012

  Actual Average Record
Temperature  
Mean Temperature 38 °F 32 °F  
Max Temperature 48 °F 41 °F 59 °F (2014)
Min Temperature 27 °F 23 °F 3 °F (1979)
Degree Days  
Heating Degree Days 27 33  
Month to date heating degree days 704 786  
Since 1 July heating degree days 1407 1702  
Cooling Degree Days 0 0  
Month to date cooling degree days 0 0  
Year to date cooling degree days 177 169  
Moisture  
Dew Point 30 °F    
Average Humidity 86    
Maximum Humidity 100    
Minimum Humidity 46    
Precipitation  
Precipitation 0.00 in 0.07 in 0.42 in (1991)
Month to date precipitation 0.55 1.94  
Year to date precipitation 7.23 13.26  
Sea Level Pressure  
Sea Level Pressure 30.09 in    
Wind  
Wind Speed 6 mph (North)    
Max Wind Speed 13 mph    
Max Gust Speed 15 mph    
Visibility 4 miles    
Events Fog    
T = Trace of Precipitation, MM = Missing Value Source: NWS Daily Summary

Daily Weather History Graph

Daily Weather History Graph

Search for Another Location

Airport or City:

Trip Planner

Search our weather history database for the weather conditions in past years. The results will help you decide how hot, cold, wet, or windy it might be!

Date:

Astronomy

Nov. 27, 2012 Rise Set
Actual Time 7:12 AM PST 4:37 PM PST
Civil Twilight 6:41 AM PST 5:08 PM PST
Nautical Twilight 6:06 AM PST 5:42 PM PST
Astronomical Twilight 5:32 AM PST 6:16 PM PST
Moon 4:12 PM PST 6:21 AM PST
Length of Visible Light 10h 27m
Length of Day
9h 25m
Waxing Gibbous, 99% of the Moon is Illuminated
Nov 27
Waxing Gibbous
Nov 28
Full
Dec 6
Last Quarter
Dec 13
New
Dec 19
First Quarter

Hourly Weather History & Observations

Time (PST) Temp. Windchill Dew Point Humidity Pressure Visibility Wind Dir Wind Speed Gust Speed Precip Events Conditions
12:37 AM 30.2 °F 26.7 °F 28.4 °F 93% 30.10 in 0.5 mi North 3.5 mph - N/A Fog Light Freezing Fog
12:53 AM 28.9 °F 23.9 °F 28.9 °F 100% 30.13 in 0.2 mi North 4.6 mph - N/A Fog Light Freezing Fog
1:06 AM 28.4 °F - 26.6 °F 93% 30.10 in 0.5 mi Calm Calm - N/A Fog Light Freezing Fog
1:11 AM 26.6 °F - 26.6 °F 100% 30.09 in 0.2 mi Calm Calm - N/A Fog Light Freezing Fog
1:53 AM 28.0 °F 24.2 °F 28.0 °F 100% 30.14 in 0.2 mi NE 3.5 mph - N/A Fog Light Freezing Fog
2:07 AM 28.4 °F 23.3 °F 28.4 °F 100% 30.10 in 0.5 mi North 4.6 mph - N/A Fog Light Freezing Fog
2:53 AM 28.9 °F 25.2 °F 28.9 °F 100% 30.14 in 0.5 mi North 3.5 mph - N/A Fog Light Freezing Fog
3:53 AM 30.0 °F 23.2 °F 28.9 °F 96% 30.13 in 0.5 mi NNW 6.9 mph - N/A Fog Light Freezing Fog
4:16 AM 30.2 °F 24.3 °F 28.4 °F 93% 30.09 in 0.5 mi NNW 5.8 mph - N/A Fog Light Freezing Fog
4:42 AM 30.2 °F 24.3 °F 28.4 °F 93% 30.09 in 0.2 mi North 5.8 mph - N/A Fog Light Freezing Fog
4:53 AM 30.0 °F 24.1 °F 28.9 °F 96% 30.14 in 0.2 mi NNW 5.8 mph - N/A Fog Light Freezing Fog
5:28 AM 30.2 °F 25.4 °F 30.2 °F 100% 30.09 in 0.5 mi North 4.6 mph - N/A Fog Light Freezing Fog
5:53 AM 30.9 °F 24.3 °F 30.0 °F 96% 30.15 in 0.5 mi North 6.9 mph - N/A Fog Light Freezing Fog
6:00 AM 30.2 °F 24.3 °F 30.2 °F 100% 30.10 in 0.2 mi North 5.8 mph - N/A Fog Light Freezing Fog
6:51 AM 30.2 °F 25.4 °F 30.2 °F 100% 30.10 in 0.2 mi NNW 4.6 mph - N/A Fog Light Freezing Fog
6:53 AM 30.0 °F 26.5 °F 28.9 °F 96% 30.15 in 0.2 mi North 3.5 mph - N/A Fog Light Freezing Fog
7:30 AM 30.2 °F - 28.4 °F 93% 30.11 in 0.2 mi Calm Calm - N/A Fog Light Freezing Fog
7:53 AM 30.9 °F 27.5 °F 30.9 °F 100% 30.16 in 0.2 mi North 3.5 mph - N/A Fog Light Freezing Fog
8:53 AM 32.0 °F 27.5 °F 30.9 °F 96% 30.17 in 0.2 mi North 4.6 mph - N/A Fog Fog
9:44 AM 32.0 °F 27.5 °F 32.0 °F 100% 30.11 in 0.5 mi North 4.6 mph - N/A Fog Fog
9:53 AM 32.0 °F 27.5 °F 32.0 °F 100% 30.17 in 0.8 mi NNW 4.6 mph - N/A   Overcast
10:00 AM 33.8 °F 29.6 °F 33.8 °F 100% 30.11 in 5.0 mi NNW 4.6 mph - N/A   Overcast
10:18 AM 35.6 °F 31.7 °F 35.6 °F 100% 30.11 in 6.0 mi NNW 4.6 mph - N/A   Mostly Cloudy
10:53 AM 37.0 °F 32.4 °F 35.1 °F 93% 30.15 in 10.0 mi NNW 5.8 mph - N/A   Overcast
11:53 AM 39.9 °F 35.1 °F 35.1 °F 83% 30.10 in 10.0 mi NNW 6.9 mph - N/A   Overcast
12:53 PM 41.0 °F 35.2 °F 34.0 °F 76% 30.08 in 10.0 mi NNW 9.2 mph - N/A   Overcast
1:53 PM 41.0 °F 35.2 °F 35.1 °F 79% 30.06 in 10.0 mi North 9.2 mph - N/A   Overcast
2:53 PM 42.1 °F 38.4 °F 35.1 °F 76% 30.05 in 10.0 mi WNW 5.8 mph - N/A   Overcast
3:53 PM 48.0 °F - 28.9 °F 48% 30.03 in 10.0 mi SSE 9.2 mph - N/A   Overcast
4:53 PM 46.9 °F - 30.0 °F 52% 30.01 in 10.0 mi SSE 10.4 mph - N/A   Mostly Cloudy
5:53 PM 46.0 °F 42.5 °F 30.0 °F 54% 30.02 in 7.0 mi South 6.9 mph - N/A   Mostly Cloudy
6:53 PM 39.0 °F 35.7 °F 28.9 °F 67% 30.03 in 7.0 mi SSE 4.6 mph - N/A   Mostly Cloudy
7:53 PM 41.0 °F - 28.9 °F 62% 30.02 in 7.0 mi Calm Calm - N/A   Mostly Cloudy
8:53 PM 41.0 °F 36.4 °F 28.9 °F 62% 30.01 in 7.0 mi SE 6.9 mph - N/A   Mostly Cloudy
9:53 PM 37.9 °F 34.4 °F 28.0 °F 68% 30.02 in 7.0 mi East 4.6 mph - N/A   Scattered Clouds
10:53 PM 41.0 °F 35.8 °F 28.9 °F 62% 29.99 in 10.0 mi SE 8.1 mph - N/A   Partly Cloudy
11:53 PM 42.1 °F 35.7 °F 28.9 °F 60% 29.97 in 10.0 mi South 11.5 mph - N/A   Unknown